Regional Weather Roundup
Issued by NWS

Current Version | Previous Version | Text Only | Print | Product List | Glossary On
Versions: 1 2 3 4 5 6 7 8 9 10 11 12 13 14 15 16 17 18 19 20 21 22 23 24 25 26 27 28 29 30 31 32 33 34 35 36 37 38 39 40 41 42 43 44 45 46 47 48 49 50
000
ASUS43 KMKX 171921
RWRWI

WISCONSIN REGIONAL WEATHER ROUNDUP
NATIONAL WEATHER SERVICE MILWAUKEE/SULLIVAN WI
200 PM CDT THU APR 17 2014

NOTE: "FAIR" INDICATES FEW OR NO CLOUDS BELOW 12,000 FEET WITH NO
SIGNIFICANT WEATHER AND/OR OBSTRUCTIONS TO VISIBILITY.

WIZ001-002-006>008-014>016-023>028-172000-
NORTHWEST WISCONSIN

CITY           SKY/WX    TMP DP  RH WIND       PRES   REMARKS
SUPERIOR ARPT  CLOUDY    37  25  64 NW8       30.25R WCI  30
ASHLAND        CLOUDY    34  29  82 NW14      30.22R WCI  25
HAYWARD        CLOUDY    33  28  81 NW8       30.22R WCI  26
SIREN          CLOUDY    36  26  68 N8        30.24F WCI  29
RICE LAKE      CLOUDY    34  29  81 NW8       30.23F WCI  28
LADYSMITH      CLOUDY    35  31  87 NW10G16   30.21R WCI  27
EAU CLAIRE     CLOUDY    40  32  73 NW12      30.21S WCI  33
MENOMONIE      CLOUDY    39  32  76 NW13      30.23S WCI  31
NEW RICHMOND   CLOUDY    35  29  78 NW9       30.25S WCI  28
OSCEOLA        CLOUDY    37  27  67 NW12      30.28S WCI  29
$$

WIZ003>005-009-010-017-018-172000-
NORTH CENTRAL WISCONSIN

CITY           SKY/WX    TMP DP  RH WIND       PRES   REMARKS
WOODRUFF       CLOUDY    39  35  83 W8        30.13R WCI  34
RHINELANDER    CLOUDY    35  32  88 W12       30.14R FOG     WCI  27
EAGLE RIVER    CLOUDY    34  33  96 W6        30.12R FOG     WCI  29
LAND O LAKES   CLOUDY    35  33  90 W3        30.13R FOG
PHILLIPS       CLOUDY    33  31  92 W8        30.15R WCI  26
TOMAHAWK       CLOUDY    36  32  85 W5        30.15R WCI  32
MEDFORD        CLOUDY    35  32  89 W10       30.17R WCI  27
MERRILL        CLOUDY    38  33  84 CALM      30.16R
$$

WIZ029-030-035-036-043>047-172000-
CENTRAL WISCONSIN

CITY           SKY/WX    TMP DP  RH WIND       PRES   REMARKS
WAUSAU         CLOUDY    40  34  79 NW13      30.15R WCI  32
MOSINEE        CLOUDY    41  37  87 W14       30.16
MARSHFIELD     CLOUDY    39  34  82 NW12      30.18R WCI  32
STEVENS POINT  CLOUDY    43  34  70 W9        30.17R
WAUPACA        CLOUDY    54  36  50 NW9       30.15R
WAUTOMA        PTSUNNY   54  37  52 W16       30.15R
WISC RAPIDS    CLOUDY    45  35  68 W14       30.19R
CAMP DOUGLAS   CLOUDY    45  36  70 W13       30.20R
$$

WIZ011>013-019>022-031-037>040-048>050-172000-
NORTHEAST WISCONSIN

CITY           SKY/WX    TMP DP  RH WIND       PRES   REMARKS
ANTIGO         CLOUDY    38  32  81 W8        30.15R WCI  32
STURGEON BAY   PTSUNNY   46  37  71 S10       30.16R
GREEN BAY      CLOUDY    50  37  61 SW9       30.14R
MANITOWOC      CLOUDY    45  36  70 S8        30.16R
APPLETON       PTSUNNY   52  36  54 W6        30.14R
CLINTONVILLE   CLOUDY    48  34  57 NW8       30.14R
OSHKOSH        CLOUDY    54  39  57 SW8       30.13R
$$

WIZ032>034-041-042-053>061-172000-
SOUTHWEST WISCONSIN

CITY           SKY/WX    TMP DP  RH WIND       PRES   REMARKS
LA CROSSE      CLOUDY    42  32  67 NW12      30.23R
SPARTA         CLOUDY    42  33  69 NW9       30.23R
VIROQUA        CLOUDY    44  35  71 NW10      30.20S
BOSCOBEL       CLOUDY    53  34  48 W8        30.21S
PRAIRIE DU CHI CLOUDY    48  33  57 W13       30.23R
PLATTEVILLE    FAIR      52  37  57 W13       30.21R
$$

WIZ056-057-062-063-064-067-068-172000-
SOUTH CENTRAL WISCONSIN

CITY           SKY/WX    TMP DP  RH WIND       PRES   REMARKS
BARABOO/DELLS  CLOUDY    50  37  62 W8        30.17R
LONE ROCK      CLOUDY    50  37  61 SW7       30.19R
WATERTOWN      CLOUDY    49  37  64 W8        30.17R
MADISON        PTSUNNY   52  37  56 W6        30.18R
MIDDLETON      FAIR      53  35  51 W12G17    30.19R
MONROE         MOSUNNY   50  36  58 W12G17    30.19R
JANESVILLE     MOSUNNY   52  36  54 W8        30.19R
$$

WIZ051-052-058>065-066-070>072-172000-
SOUTHEAST WISCONSIN

CITY           SKY/WX    TMP DP  RH WIND       PRES   REMARKS
MILWAUKEE      PTSUNNY   53  37  54 SW13      30.19R
WAUKESHA       CLOUDY    46  37  71 W12       30.19R
MILWAUKEE/TIMM CLOUDY    50  36  57 W8G21       N/A
RACINE         PTSUNNY   56  40  55 W10G22    30.19R
BURLINGTON     PTSUNNY   51  38  62 SW9       30.19R
KENOSHA        MOSUNNY   55  41  59 W15G23    30.18R
FOND DU LAC    CLOUDY    50  38  63 SW9       30.15R
SHEBOYGAN      CLOUDY    50  39  66 W12       30.16R
WEST BEND      CLOUDY    46  36  66 W13       30.17R
JUNEAU         CLOUDY    47  35  63 SW9       30.19R
$$

LSZ147-162-172000-
LAKE SUPERIOR

STATION/POSITION TIME  TEMP    WIND        PRES    WAVE
                       AIR SEA DIR/SP/G            HT/PER
                 (UTC) (F)     (DEG/KT/KT) (MB)    (FT/S)
DEVILS ISLAND    1900   33     320/  3/  5 1023.7R
PORT WING        1840   34     280/  5/  6 1023.7R
SAXON HARBOR     1800          290/  4/  9 1022.4R
$$

LMZ867-665-643>646-172000-
LAKE MICHIGAN

STATION/POSITION TIME  TEMP    WIND        PRES    WAVE
                       AIR SEA DIR/SP/G            HT/PER
                 (UTC) (F)     (DEG/KT/KT) (MB)    (FT/S)
NORTHPORT PIER   1800   36     130/  9/ 12 1021.3S
SISTER BAY       1823   44     180/ 14/ 19   N/A
KEWAUNEE LAKESHO 1900   38     180/ 12/ 13 1021.7R
SHEBOYGAN LAKESH 1900   42     170/ 12/ 14 1021.8R
PORT WASHINGTON  1700   40     110/  3/  4 1021.3R
MILWAUKEE LAKESH 1900   50     250/ 11/ 15   N/A
KENOSHA   LAKESH 1900   54     260/ 12/ 15   N/A
$$

TC  - TEMPERATURE IN CELSIUS
VSB - VISIBILITY IN STATUTE MILES
WCI - WIND CHILL INDEX
HX  - HEAT INDEX




USA.gov is the U.S. government's official web portal to all federal, state and local government web resources and services.